Location: Newark
(30.3936°N, 76.2251°E)
Time: 08:14:08
(UTC+00:00)

ISS - Visible Passes

Search period start: 01 October 2020 00:00
Search period end: 11 October 2020 00:00
Orbit: 419 x 421 km, 51.6° (Epoch: 01 October)

Date Brightness Start Highest point End Pass type
(mag) Time Alt. Az. Time Alt. Az. Time Alt. Az.
04 Oct -1.2 13:46:10 10° NNE 13:46:39 11° NNE 13:46:39 11° NNE visible
05 Oct -1.1 14:33:34 10° NW 14:34:26 17° NNW 14:34:26 17° NNW visible
06 Oct -2.6 13:46:31 10° NNW 13:49:20 28° NE 13:49:20 28° NE visible
07 Oct -1.9 12:59:42 10° N 13:02:01 17° NE 13:04:20 10° E visible
07 Oct -1.3 14:35:48 10° WNW 14:37:24 22° W 14:37:24 22° W visible
08 Oct -3.6 13:48:15 10° NW 13:51:37 72° SW 13:52:38 41° SSE visible
09 Oct -3.6 13:00:57 10° NW 13:04:15 54° NE 13:07:33 10° ESE visible
10 Oct -1.0 13:51:08 10° W 13:53:27 17° SW 13:55:46 10° S visible
